QPF
0.00 0.00 0.00 0.00 0.00 0.00 0.00 0.00 0.00 0.00 0.00 0.00 0.00 0.00 0.00 0.00 0.00 0.00 0.00 0.00 0.00 0.00 0.00 0.00 0.00 0.00 0.00 0.00 0.00 0.00 0.00 0.00 0.00 0.00 0.00 0.00 0.00 0.00 0.00 0.00 0.00 0.00 0.00 0.00 0.00 0.00 0.00
0.00 0.00 0.00 0.00 0.00 0.00 0.00 0.00 0.00 0.00 0.00 0.00 0.00 0.00 0.00 0.00 0.00 0.00 0.00 0.00 0.00 0.00 0.00 0.00 0.00 0.00 0.00 0.00 0.00 0.00 0.00 0.00 0.00 0.00 0.00 0.00 0.00 0.00 0.00 0.00 0.00 0.00 0.00 0.00 0.00 0.00 0.00
0.00 0.00 0.00 0.00 0.00 0.00 0.00 0.00 0.00 0.00 0.00 0.00 0.00 0.00 0.00 0.00 0.00 0.00 0.00 0.00 0.00 0.00 0.00 0.00 0.00 0.00 0.00 0.00 0.00 0.00 0.00 0.00 0.00 0.00 0.00 0.00 0.00 0.00 0.00 0.00 0.00 0.00 0.00 0.00 0.00 0.00 0.00
0.01 0.00 0.00 0.00 0.00 0.00 0.00 0.00 0.00 0.00 0.00 0.00 0.00 0.00 0.00 0.00 0.00 0.00 0.00 0.00 0.00 0.00 0.00 0.00 0.00 0.00 0.00 0.00 0.00 0.00 0.00 0.00 0.00 0.00 0.00 0.00 0.00 0.00 0.00 0.00 0.00 0.00 0.00 0.00 0.00 0.00 0.00
0.01 0.01 0.00 0.00 0.00 0.00 0.00 0.00 0.00 0.00 0.00 0.00 0.00 0.00 0.00 0.00 0.00 0.00 0.00 0.00 0.00 0.00 0.00 0.00 0.00 0.00 0.00 0.00 0.00 0.00 0.00 0.00 0.00 0.00 0.00 0.00 0.00 0.00 0.00 0.00 0.00 0.00 0.00 0.00 0.00 0.00 0.00
0.02 0.01 0.00 0.00 0.00 0.00 0.00 0.00 0.00 0.00 0.00 0.00 0.00 0.00 0.00 0.00 0.00 0.00 0.00 0.00 0.00 0.00 0.00 0.00 0.00 0.00 0.00 0.00 0.00 0.00 0.00 0.00 0.00 0.00 0.00 0.00 0.00 0.00 0.00 0.00 0.00 0.00 0.00 0.00 0.00 0.00 0.00
0.03 0.02 0.01 0.01 0.00 0.00 0.00 0.00 0.00 0.00 0.00 0.00 0.00 0.00 0.00 0.00 0.00 0.00 0.00 0.00 0.00 0.00 0.00 0.00 0.00 0.00 0.00 0.00 0.00 0.00 0.00 0.00 0.00 0.00 0.00 0.00 0.00 0.00 0.00 0.00 0.00 0.00 0.00 0.00 0.00 0.00 0.00
0.01 0.02 0.01 0.00 0.00 0.00 0.00 0.00 0.00 0.00 0.00 0.00 0.00 0.00 0.00 0.00 0.00 0.00 0.00 0.00 0.00 0.00 0.00 0.00 0.00 0.00 0.00 0.00 0.00 0.00 0.00 0.00 0.00 0.00 0.00 0.00 0.00 0.00 0.00 0.00 0.00 0.00 0.00 0.00 0.00 0.00 0.00
0.01 0.01 0.01 0.01 0.00 0.00 0.00 0.00 0.00 0.00 0.00 0.00 0.00 0.00 0.00 0.00 0.00 0.00 0.00 0.00 0.00 0.00 0.00 0.00 0.00 0.00 0.00 0.00 0.00 0.00 0.00 0.00 0.00 0.00 0.00 0.00 0.00 0.00 0.00 0.00 0.00 0.00 0.00 0.00 0.00 0.00 0.00
0.00 0.01 0.01 0.01 0.00 0.00 0.00 0.00 0.00 0.00 0.00 0.00 0.00 0.00 0.00 0.00 0.00 0.00 0.00 0.00 0.00 0.00 0.00 0.00 0.00 0.00 0.00 0.00 0.00 0.00 0.00 0.00 0.00 0.00 0.00 0.00 0.00 0.00 0.00 0.00 0.00 0.00 0.00 0.00 0.00 0.00 0.00
0.00 0.00 0.01 0.01 0.00 0.00 0.00 0.00 0.00 0.00 0.00 0.00 0.00 0.01 0.02 0.00 0.00 0.00 0.00 0.00 0.00 0.00 0.00 0.00 0.00 0.00 0.00 0.00 0.00 0.00 0.00 0.00 0.00 0.00 0.00 0.00 0.00 0.00 0.00 0.00 0.00 0.00 0.00 0.00 0.00 0.00 0.00
0.00 0.00 0.00 0.01 0.00 0.00 0.00 0.00 0.00 0.00 0.00 0.00 0.00 0.00 0.04 0.01 0.00 0.00 0.00 0.00 0.00 0.00 0.00 0.00 0.00 0.00 0.00 0.00 0.00 0.00 0.00 0.00 0.00 0.00 0.00 0.00 0.00 0.00 0.00 0.00 0.00 0.00 0.00 0.00 0.00 0.00 0.00
0.01 0.00 0.00 0.00 0.01 0.00 0.00 0.00 0.00 0.00 0.00 0.00 0.00 0.00 0.03 0.02 0.00 0.00 0.00 0.00 0.00 0.00 0.00 0.00 0.00 0.00 0.00 0.00 0.00 0.00 0.00 0.00 0.00 0.00 0.00 0.00 0.00 0.00 0.00 0.00 0.00 0.00 0.00 0.00 0.00 0.00 0.00
0.01 0.00 0.00 0.00 0.00 0.01 0.00 0.00 0.00 0.00 0.00 0.00 0.00 0.00 0.01 0.02 0.00 0.00 0.00 0.00 0.00 0.00 0.00 0.00 0.00 0.00 0.00 0.00 0.00 0.00 0.00 0.00 0.00 0.00 0.00 0.00 0.00 0.00 0.00 0.00 0.00 0.00 0.00 0.00 0.00 0.00 0.00
0.00 0.01 0.00 0.00 0.00 0.01 0.01 0.00 0.00 0.00 0.00 0.00 0.00 0.00 0.00 0.01 0.01 0.01 0.00 0.00 0.00 0.00 0.00 0.00 0.00 0.00 0.00 0.00 0.00 0.00 0.00 0.00 0.00 0.00 0.00 0.00 0.00 0.00 0.00 0.00 0.00 0.00 0.00 0.00 0.00 0.00 0.00
0.00 0.00 0.00 0.00 0.00 0.00 0.01 0.00 0.00 0.01 0.00 0.00 0.00 0.00 0.00 0.02 0.06 0.04 0.00 0.00 0.00 0.00 0.00 0.00 0.00 0.00 0.00 0.00 0.00 0.00 0.00 0.00 0.00 0.00 0.00 0.00 0.00 0.00 0.00 0.00 0.00 0.00 0.00 0.00 0.00 0.00 0.00
0.00 0.00 0.00 0.00 0.00 0.00 0.00 0.01 0.00 0.01 0.01 0.01 0.00 0.00 0.00 0.03 0.07 0.04 0.00 0.00 0.00 0.00 0.00 0.00 0.00 0.00 0.00 0.00 0.00 0.00 0.00 0.00 0.00 0.00 0.00 0.00 0.00 0.00 0.00 0.00 0.00 0.00 0.00 0.00 0.00 0.00 0.00
0.00 0.00 0.00 0.00 0.00 0.00 0.00 0.01 0.01 0.01 0.02 0.01 0.01 0.00 0.01 0.04 0.04 0.01 0.00 0.00 0.00 0.00 0.00 0.00 0.00 0.00 0.00 0.00 0.00 0.00 0.00 0.00 0.00 0.00 0.00 0.00 0.00 0.00 0.00 0.00 0.00 0.00 0.00 0.00 0.00 0.00 0.00
0.00 0.00 0.00 0.00 0.00 0.00 0.00 0.00 0.01 0.01 0.00 0.01 0.00 0.00 0.00 0.04 0.01 0.00 0.00 0.00 0.00 0.00 0.00 0.00 0.00 0.00 0.00 0.00 0.00 0.00 0.00 0.00 0.00 0.00 0.00 0.00 0.00 0.00 0.00 0.00 0.00 0.00 0.00 0.00 0.00 0.00 0.00
0.00 0.00 0.00 0.00 0.00 0.00 0.00 0.00 0.01 0.01 0.00 0.01 0.00 0.00 0.00 0.01 0.01 0.00 0.00 0.00 0.00 0.00 0.00 0.00 0.00 0.00 0.00 0.00 0.00 0.00 0.00 0.00 0.00 0.00 0.00 0.00 0.00 0.00 0.00 0.00 0.00 0.00 0.00 0.00 0.00 0.00 0.00
0.01 0.01 0.00 0.00 0.00 0.00 0.01 0.01 0.02 0.01 0.00 0.01 0.00 0.00 0.00 0.00 0.00 0.00 0.00 0.00 0.00 0.00 0.00 0.00 0.00 0.00 0.00 0.00 0.00 0.00 0.00 0.00 0.00 0.00 0.00 0.00 0.00 0.00 0.00 0.00 0.00 0.00 0.00 0.00 0.00 0.00 0.00
0.02 0.01 0.01 0.00 0.01 0.01 0.01 0.01 0.02 0.01 0.00 0.01 0.00 0.00 0.00 0.00 0.00 0.00 0.00 0.00 0.00 0.00 0.00 0.00 0.00 0.00 0.00 0.00 0.00 0.00 0.00 0.00 0.00 0.00 0.00 0.00 0.00 0.00 0.00 0.00 0.00 0.00 0.00 0.00 0.00 0.00 0.00
0.01 0.01 0.01 0.01 0.01 0.02 0.02 0.02 0.03 0.00 0.01 0.00 0.00 0.00 0.00 0.00 0.00 0.00 0.00 0.00 0.00 0.00 0.00 0.00 0.00 0.00 0.00 0.00 0.00 0.00 0.00 0.00 0.00 0.00 0.00 0.00 0.00 0.00 0.00 0.00 0.00 0.00 0.00 0.00 0.00 0.00 0.00
0.01 0.01 0.01 0.01 0.02 0.02 0.03 0.03 0.02 0.00 0.00 0.00 0.00 0.00 0.01 0.00 0.00 0.00 0.00 0.00 0.00 0.00 0.00 0.00 0.00 0.00 0.00 0.00 0.00 0.00 0.00 0.00 0.00 0.00 0.00 0.00 0.00 0.00 0.00 0.00 0.00 0.00 0.00 0.00 0.00 0.00 0.00
0.01 0.01 0.01 0.02 0.02 0.02 0.03 0.03 0.01 0.00 0.00 0.00 0.00 0.00 0.01 0.00 0.00 0.00 0.00 0.00 0.00 0.00 0.00 0.00 0.00 0.00 0.00 0.00 0.00 0.00 0.00 0.00 0.00 0.00 0.00 0.00 0.00 0.00 0.00 0.00 0.00 0.00 0.00 0.00 0.00 0.00 0.00
0.01 0.00 0.01 0.02 0.02 0.02 0.03 0.02 0.00 0.00 0.00 0.00 0.00 0.00 0.00 0.00 0.00 0.00 0.00 0.00 0.00 0.00 0.00 0.00 0.00 0.00 0.00 0.00 0.00 0.00 0.00 0.00 0.00 0.00 0.00 0.00 0.00 0.00 0.00 0.00 0.00 0.00 0.00 0.00 0.00 0.00 0.00
0.02 0.01 0.01 0.01 0.01 0.02 0.02 0.01 0.00 0.00 0.00 0.00 0.00 0.00 0.00 0.00 0.00 0.00 0.00 0.00 0.00 0.00 0.00 0.00 0.00 0.00 0.00 0.00 0.00 0.00 0.00 0.00 0.00 0.00 0.00 0.00 0.00 0.00 0.00 0.00 0.00 0.00 0.00 0.00 0.00 0.00 0.00
0.03 0.02 0.01 0.01 0.01 0.01 0.01 0.01 0.00 0.00 0.00 0.00 0.00 0.00 0.00 0.01 0.00 0.00 0.00 0.00 0.00 0.00 0.00 0.00 0.00 0.00 0.00 0.00 0.00 0.00 0.00 0.00 0.00 0.00 0.00 0.00 0.00 0.00 0.00 0.00 0.00 0.00 0.00 0.00 0.00 0.00 0.00
0.02 0.02 0.01 0.01 0.01 0.01 0.01 0.00 0.00 0.00 0.00 0.00 0.00 0.01 0.01 0.01 0.00 0.00 0.00 0.00 0.00 0.00 0.00 0.00 0.00 0.00 0.00 0.00 0.00 0.00 0.00 0.00 0.00 0.00 0.00 0.00 0.00 0.00 0.00 0.00 0.00 0.00 0.00 0.00 0.00 0.00 0.00
MSLP
1022.66 1022.50 1022.27 1022.21 1022.23 1022.02 1021.70 1021.59 1021.29 1020.91 1020.91 1021.10 1021.28 1021.40 1021.60 1021.51 1021.93 1021.66 1021.89 1021.83 1021.54 1021.07 1020.67 1020.37 1019.93 1019.58 1018.95 1019.00 1018.96 1018.16 1017.83 1017.25 1016.65 1016.27 1016.43 1016.53 1016.79 1017.73 1019.32 1020.88 1021.90 1022.89 1024.78 1025.41 1026.18 1026.70 1027.02
1022.38 1022.29 1022.04 1022.07 1021.97 1021.88 1021.76 1021.50 1021.25 1020.78 1020.69 1020.82 1020.98 1021.31 1021.47 1021.31 1021.63 1021.69 1021.82 1021.48 1021.43 1021.05 1020.61 1020.29 1019.94 1019.55 1019.43 1019.09 1018.60 1018.22 1017.97 1017.38 1017.17 1017.01 1016.97 1017.03 1017.66 1018.31 1020.00 1020.92 1021.46 1023.72 1024.60 1025.70 1026.34 1026.98 1027.43
1022.12 1022.00 1021.91 1021.85 1021.74 1021.70 1021.66 1021.73 1021.43 1020.81 1020.73 1020.56 1020.73 1021.00 1021.20 1021.14 1021.40 1021.52 1021.84 1021.42 1021.15 1020.86 1020.62 1020.20 1020.08 1019.66 1019.62 1019.06 1018.56 1018.37 1018.05 1017.77 1017.37 1017.47 1017.53 1017.42 1017.61 1018.15 1020.01 1021.56 1022.47 1023.73 1024.76 1026.31 1026.86 1027.11 1028.09
1021.79 1021.70 1021.67 1021.61 1021.57 1021.43 1021.38 1021.29 1021.25 1020.86 1020.48 1020.27 1020.49 1020.60 1020.98 1021.07 1021.37 1021.43 1021.43 1021.12 1021.09 1020.81 1020.37 1020.06 1020.21 1019.69 1019.22 1018.60 1018.45 1018.16 1017.99 1017.78 1017.51 1017.37 1017.58 1017.52 1017.57 1018.59 1020.05 1021.78 1023.23 1024.09 1025.12 1026.32 1027.17 1027.38 1027.99
1021.36 1021.24 1021.27 1021.30 1021.29 1021.17 1021.13 1021.12 1021.05 1020.65 1020.56 1020.16 1019.98 1020.19 1020.48 1020.97 1021.27 1021.07 1021.14 1021.14 1020.88 1020.78 1020.10 1019.87 1020.20 1019.46 1019.14 1018.52 1018.47 1018.33 1018.10 1018.21 1017.91 1017.68 1017.63 1017.53 1018.03 1019.89 1021.20 1022.49 1023.94 1024.69 1025.84 1026.40 1027.12 1027.35 1028.04
1020.86 1020.80 1020.75 1020.85 1020.85 1020.83 1020.81 1020.78 1020.77 1020.48 1020.57 1020.11 1019.68 1019.99 1020.30 1020.66 1020.98 1021.03 1021.14 1020.88 1020.61 1020.56 1019.54 1020.02 1019.63 1019.59 1019.13 1018.85 1018.65 1018.52 1018.20 1018.27 1018.52 1018.55 1018.55 1018.91 1020.21 1021.38 1022.61 1023.41 1023.89 1025.04 1026.22 1026.82 1027.64 1028.57 1028.45
1020.59 1020.43 1020.46 1020.44 1020.49 1020.48 1020.50 1020.50 1020.45 1020.49 1020.78 1020.06 1020.08 1019.62 1019.88 1020.28 1020.84 1021.06 1021.15 1020.82 1021.37 1020.72 1020.33 1019.69 1018.97 1018.87 1019.09 1018.89 1018.67 1018.74 1018.65 1018.67 1018.83 1019.51 1020.32 1021.17 1021.87 1022.93 1023.19 1022.94 1023.12 1024.31 1025.83 1026.83 1027.85 1028.50 1028.96
1020.22 1020.12 1020.11 1019.98 1020.06 1020.09 1020.23 1020.32 1020.23 1020.43 1020.56 1020.28 1019.95 1019.13 1019.52 1020.04 1020.53 1020.86 1021.15 1020.85 1020.11 1020.16 1020.15 1019.07 1018.70 1018.93 1019.02 1019.03 1019.22 1019.25 1018.99 1019.25 1019.78 1020.87 1021.22 1022.31 1022.92 1023.07 1023.19 1023.40 1023.94 1024.81 1026.00 1027.17 1027.65 1027.87 1028.53
1019.77 1019.74 1019.72 1019.69 1019.69 1019.79 1019.87 1019.78 1019.87 1020.03 1020.17 1020.01 1019.74 1018.80 1019.23 1019.73 1020.41 1020.93 1021.02 1020.17 1019.67 1019.60 1020.00 1019.36 1018.69 1018.91 1018.71 1019.27 1019.66 1019.61 1019.67 1019.98 1020.68 1021.68 1022.33 1022.97 1023.36 1023.26 1023.60 1024.35 1024.71 1025.58 1026.10 1026.78 1027.28 1027.92 1028.80
1019.22 1019.22 1019.35 1019.32 1019.25 1019.39 1019.41 1019.44 1019.43 1019.56 1019.99 1020.04 1019.63 1019.43 1018.29 1019.33 1020.66 1020.56 1020.61 1019.25 1019.50 1019.60 1020.50 1019.58 1018.94 1018.70 1018.67 1019.43 1019.79 1019.71 1019.72 1020.17 1021.28 1022.65 1023.16 1023.76 1023.61 1023.83 1024.22 1024.58 1024.99 1025.70 1026.07 1026.66 1027.66 1028.73 1029.75
1018.67 1018.64 1018.73 1018.81 1018.89 1019.02 1019.03 1019.08 1019.22 1019.44 1019.70 1019.84 1019.91 1019.28 1018.35 1018.50 1019.12 1019.85 1019.18 1019.11 1019.46 1019.89 1020.95 1019.30 1018.96 1018.80 1018.77 1019.76 1019.93 1019.99 1019.86 1020.18 1021.58 1022.79 1023.78 1024.87 1024.50 1024.49 1024.84 1025.05 1025.08 1025.89 1026.33 1027.24 1028.42 1029.56 1030.53
1018.11 1018.08 1018.18 1018.35 1018.43 1018.52 1018.65 1018.81 1019.10 1019.33 1019.65 1019.92 1020.18 1019.80 1019.14 1018.49 1018.74 1018.43 1018.71 1019.14 1019.88 1021.07 1020.15 1019.41 1019.12 1019.02 1019.29 1019.84 1020.11 1020.37 1020.59 1021.02 1022.18 1023.79 1024.58 1025.15 1024.93 1025.06 1025.10 1025.18 1025.35 1025.98 1027.16 1028.54 1029.77 1030.90 1032.20
1017.46 1017.51 1017.64 1017.81 1017.94 1018.12 1018.36 1018.57 1018.94 1019.22 1019.46 1019.85 1019.88 1019.74 1019.22 1017.81 1017.96 1017.97 1018.88 1019.94 1021.24 1020.89 1019.39 1019.40 1019.09 1019.23 1019.69 1020.25 1020.62 1021.02 1021.39 1022.13 1023.34 1025.44 1026.43 1026.38 1026.17 1025.80 1025.55 1025.87 1026.19 1026.90 1028.72 1030.93 1032.58 1033.44 1033.43
1016.79 1016.93 1017.01 1017.22 1017.44 1017.64 1017.92 1018.24 1018.67 1019.04 1019.50 1019.76 1019.94 1020.00 1019.04 1018.69 1017.62 1017.97 1019.07 1020.66 1020.54 1019.06 1018.61 1018.53 1018.64 1019.57 1020.07 1020.38 1021.04 1021.63 1022.39 1023.25 1024.09 1025.20 1027.09 1027.89 1028.08 1027.13 1026.61 1026.83 1027.12 1027.99 1029.49 1031.54 1034.01 1035.13 1034.52
1016.07 1016.24 1016.47 1016.61 1016.94 1017.23 1017.56 1017.91 1018.43 1018.83 1019.26 1019.65 1019.57 1019.23 1019.03 1017.92 1018.26 1018.06 1019.33 1020.13 1018.33 1017.95 1017.31 1017.79 1018.90 1019.66 1020.39 1020.74 1021.09 1022.13 1022.98 1023.85 1024.54 1025.45 1026.96 1028.76 1029.03 1028.03 1027.55 1027.50 1027.92 1028.86 1030.31 1031.88 1034.20 1036.08 1036.26
1015.23 1015.47 1015.67 1016.02 1016.31 1016.76 1017.21 1017.70 1018.21 1018.76 1019.26 1019.64 1019.59 1019.27 1018.93 1017.08 1018.21 1018.66 1019.41 1018.25 1017.49 1016.89 1016.41 1016.87 1017.79 1018.79 1019.98 1020.70 1021.33 1022.32 1023.26 1023.81 1024.83 1025.54 1026.59 1029.12 1029.73 1029.08 1028.29 1028.09 1028.67 1029.37 1031.38 1033.46 1035.79 1037.91 1038.44
1014.37 1014.62 1014.91 1015.24 1015.62 1016.14 1016.75 1017.29 1017.87 1018.45 1018.92 1019.25 1019.75 1019.46 1017.08 1016.37 1018.19 1018.63 1016.96 1017.05 1016.59 1015.92 1015.54 1016.32 1016.96 1018.19 1019.29 1020.23 1021.28 1022.22 1023.05 1023.94 1024.36 1025.94 1026.75 1028.48 1029.15 1029.91 1029.16 1028.98 1029.52 1030.93 1032.90 1035.33 1037.12 1039.09 1039.51
1013.29 1013.63 1014.02 1014.36 1014.90 1015.43 1016.16 1016.75 1017.42 1018.07 1018.76 1019.27 1019.40 1019.44 1016.89 1016.64 1016.71 1016.71 1016.78 1016.51 1016.16 1015.68 1015.46 1015.60 1016.11 1017.04 1018.52 1020.09 1021.29 1022.03 1022.74 1023.29 1023.93 1024.94 1026.67 1027.61 1029.00 1030.16 1029.66 1029.19 1029.65 1031.07 1033.39 1035.53 1037.76 1040.17 1040.50
1012.06 1012.49 1012.98 1013.59 1014.20 1014.80 1015.51 1016.16 1016.91 1017.63 1018.35 1019.19 1019.82 1019.57 1017.55 1016.55 1015.92 1016.38 1016.71 1016.82 1016.30 1015.22 1015.05 1015.37 1015.99 1016.37 1017.87 1019.81 1021.43 1021.97 1022.57 1023.06 1023.52 1024.75 1025.60 1026.81 1028.81 1030.12 1030.34 1030.37 1030.36 1031.23 1033.02 1034.93 1036.62 1038.39 1039.74
1010.68 1011.23 1011.77 1012.55 1013.38 1014.09 1014.73 1015.47 1016.25 1017.13 1017.76 1018.45 1019.30 1019.58 1018.53 1016.82 1016.09 1016.24 1016.23 1016.44 1016.28 1015.11 1014.89 1014.92 1015.64 1016.38 1017.95 1019.88 1020.89 1022.16 1022.96 1023.56 1023.79 1024.38 1024.96 1025.84 1028.01 1028.55 1028.32 1028.34 1029.05 1030.62 1032.41 1034.00 1035.34 1038.01 1038.39
1009.03 1009.68 1010.45 1011.24 1012.28 1013.20 1013.92 1014.60 1015.52 1016.59 1017.27 1018.19 1019.46 1019.04 1017.88 1017.41 1016.05 1016.32 1016.09 1015.71 1016.33 1015.34 1014.79 1014.80 1015.81 1016.39 1017.62 1019.88 1021.24 1022.37 1023.03 1023.73 1024.27 1024.56 1025.26 1026.16 1027.53 1027.84 1027.70 1027.62 1028.15 1029.28 1030.73 1032.53 1033.70 1034.53 1035.44
1007.15 1007.94 1008.91 1009.97 1011.03 1012.07 1012.97 1013.62 1014.64 1015.90 1016.83 1017.84 1018.38 1017.83 1017.69 1017.02 1016.17 1016.09 1015.27 1015.25 1014.51 1015.38 1015.15 1014.89 1015.77 1016.88 1017.68 1018.67 1019.45 1021.35 1022.31 1023.33 1023.80 1024.93 1025.55 1026.06 1027.10 1027.53 1027.71 1027.49 1027.93 1028.44 1029.07 1030.09 1031.15 1032.15 1032.79
1005.23 1006.13 1007.24 1008.54 1009.67 1010.78 1011.76 1012.71 1013.77 1014.79 1015.63 1016.69 1017.48 1017.19 1017.26 1016.30 1015.42 1015.67 1014.08 1013.75 1013.92 1015.30 1015.10 1014.62 1015.72 1017.05 1018.14 1018.47 1019.24 1020.70 1021.50 1022.42 1022.95 1024.29 1025.52 1026.25 1027.25 1028.03 1028.26 1027.74 1027.88 1027.54 1026.58 1027.81 1028.80 1029.20 1029.63
1003.37 1004.36 1005.59 1006.97 1008.23 1009.36 1010.45 1011.45 1012.48 1013.30 1013.67 1015.12 1016.22 1016.54 1016.90 1015.93 1014.20 1013.40 1013.48 1013.80 1013.98 1014.83 1015.14 1015.19 1015.77 1016.97 1018.78 1018.49 1020.03 1021.45 1022.47 1023.23 1023.77 1024.40 1025.04 1026.28 1027.42 1028.42 1028.95 1028.49 1027.99 1025.13 1024.35 1024.68 1025.81 1026.29 1027.03
1001.77 1002.77 1004.03 1005.39 1006.76 1008.01 1009.09 1010.08 1011.19 1012.29 1013.04 1014.39 1015.32 1015.73 1016.12 1015.52 1012.87 1012.79 1012.57 1013.12 1013.93 1014.90 1015.11 1015.44 1016.05 1016.59 1017.77 1019.15 1021.68 1023.36 1024.61 1024.59 1024.83 1024.88 1025.43 1025.97 1027.44 1029.04 1029.30 1028.64 1026.56 1024.22 1023.62 1023.84 1024.54 1024.54 1024.32
1000.26 1001.31 1002.48 1003.89 1005.41 1006.65 1007.75 1008.82 1010.08 1011.48 1012.77 1014.11 1014.72 1015.32 1015.38 1015.79 1011.45 1010.78 1010.98 1011.51 1012.97 1014.20 1015.29 1016.04 1016.62 1017.00 1017.66 1020.27 1022.60 1024.12 1024.83 1024.85 1025.18 1025.47 1025.66 1026.60 1027.39 1028.97 1029.66 1029.07 1027.06 1023.94 1022.65 1022.36 1023.13 1023.62 1022.74
998.62 999.80 1001.06 1002.44 1004.03 1005.34 1006.54 1007.85 1009.39 1010.81 1011.91 1013.27 1014.28 1015.46 1015.55 1015.41 1011.27 1009.97 1009.56 1009.59 1011.46 1013.67 1015.37 1016.46 1017.29 1018.06 1018.66 1021.21 1023.36 1024.60 1025.00 1024.39 1025.09 1025.40 1026.05 1027.16 1028.28 1029.16 1029.62 1028.89 1026.06 1023.20 1022.56 1022.24 1023.15 1022.69 1021.74
996.74 998.08 999.52 1001.06 1002.67 1004.15 1005.52 1007.06 1008.55 1009.87 1011.20 1012.56 1013.81 1014.78 1015.26 1014.99 1012.16 1009.09 1008.90 1009.06 1010.92 1012.00 1013.76 1015.63 1017.21 1018.57 1020.03 1021.55 1023.09 1024.13 1024.34 1024.64 1024.80 1024.69 1025.15 1026.08 1027.42 1028.45 1029.04 1028.55 1025.65 1022.33 1022.39 1022.06 1021.56 1021.41 1021.35
994.45 996.25 997.84 999.68 1001.38 1003.06 1004.60 1006.13 1007.42 1008.83 1010.27 1012.33 1013.47 1014.39 1015.40 1015.30 1012.20 1009.14 1008.24 1008.26 1008.62 1010.16 1012.08 1014.82 1015.88 1017.27 1018.60 1020.73 1022.35 1023.11 1023.90 1024.02 1024.17 1024.83 1024.25 1024.98 1024.23 1025.12 1025.51 1024.40 1022.47 1021.54 1020.86 1020.48 1020.57 1020.89 1021.34
Thickness
5558 5564 5570 5575 5579 5587 5594 5601 5608 5616 5620 5624 5628 5633 5636 5641 5642 5647 5649 5653 5658 5663 5669 5675 5682 5688 5695 5686 5685 5704 5708 5714 5720 5724 5715 5715 5709 5700 5680 5671 5665 5653 5641 5637 5630 5624 5618
5543 5548 5555 5560 5566 5573 5580 5589 5598 5607 5612 5616 5621 5624 5628 5635 5637 5641 5644 5649 5652 5659 5665 5669 5674 5681 5680 5671 5692 5696 5701 5706 5707 5707 5704 5705 5697 5694 5673 5663 5658 5643 5636 5626 5622 5614 5610
5526 5531 5537 5544 5551 5558 5566 5572 5583 5595 5601 5608 5613 5618 5623 5628 5631 5636 5637 5644 5649 5654 5658 5662 5667 5672 5668 5668 5684 5689 5693 5694 5699 5696 5690 5696 5697 5688 5671 5652 5652 5640 5627 5617 5610 5609 5598
5508 5513 5519 5526 5535 5543 5552 5560 5569 5581 5592 5598 5604 5611 5614 5620 5624 5629 5634 5641 5644 5650 5656 5659 5661 5665 5657 5674 5677 5682 5686 5688 5692 5694 5691 5692 5692 5678 5664 5654 5639 5631 5624 5604 5606 5603 5596
5491 5497 5502 5509 5517 5527 5536 5546 5555 5569 5578 5589 5597 5604 5608 5612 5616 5624 5629 5634 5641 5645 5653 5655 5654 5658 5651 5669 5666 5674 5678 5675 5681 5685 5686 5689 5681 5657 5649 5631 5616 5622 5599 5600 5601 5599 5591
5474 5479 5486 5492 5501 5510 5520 5530 5540 5553 5562 5577 5587 5593 5599 5604 5609 5615 5621 5630 5636 5642 5652 5648 5653 5646 5653 5648 5659 5665 5673 5673 5669 5669 5667 5665 5647 5631 5624 5616 5602 5605 5596 5589 5585 5582 5578
5455 5461 5468 5476 5485 5494 5504 5515 5526 5538 5548 5563 5573 5584 5593 5598 5600 5606 5614 5621 5621 5629 5637 5641 5646 5646 5643 5648 5656 5655 5663 5662 5663 5654 5640 5637 5620 5610 5621 5628 5629 5615 5597 5586 5581 5579 5572
5439 5445 5452 5463 5471 5481 5489 5500 5512 5524 5538 5548 5564 5577 5585 5588 5593 5599 5605 5610 5623 5630 5624 5645 5646 5644 5645 5645 5636 5644 5656 5647 5646 5630 5634 5618 5611 5623 5627 5622 5617 5607 5590 5580 5584 5587 5573
5426 5433 5440 5448 5458 5467 5476 5489 5501 5514 5528 5547 5551 5572 5574 5581 5584 5591 5596 5609 5621 5629 5615 5629 5641 5639 5640 5639 5629 5636 5643 5641 5631 5622 5617 5609 5618 5625 5616 5605 5603 5593 5585 5582 5581 5583 5571
5416 5422 5429 5437 5445 5452 5464 5476 5490 5504 5516 5532 5543 5557 5564 5572 5574 5584 5590 5610 5615 5622 5592 5616 5628 5633 5638 5635 5626 5641 5643 5640 5628 5611 5612 5610 5619 5612 5605 5601 5600 5586 5595 5592 5581 5566 5549
5405 5414 5421 5428 5435 5441 5451 5463 5477 5491 5505 5521 5531 5547 5562 5574 5578 5581 5593 5602 5606 5608 5561 5617 5621 5635 5634 5624 5627 5630 5640 5636 5619 5616 5607 5595 5602 5599 5594 5596 5600 5588 5595 5587 5579 5561 5547
5395 5406 5414 5421 5428 5435 5444 5452 5463 5478 5492 5507 5517 5529 5547 5557 5569 5578 5586 5593 5594 5560 5558 5603 5613 5616 5617 5621 5621 5624 5626 5628 5620 5604 5600 5597 5604 5598 5597 5598 5598 5594 5584 5569 5563 5549 5493
5390 5400 5409 5417 5423 5429 5435 5443 5451 5464 5479 5493 5507 5519 5533 5555 5566 5572 5573 5571 5545 5535 5600 5597 5604 5613 5612 5609 5610 5613 5612 5607 5593 5578 5579 5586 5588 5592 5596 5585 5588 5583 5558 5488 5504 5493 5489
5388 5397 5406 5414 5419 5425 5431 5436 5442 5452 5465 5479 5493 5512 5520 5540 5552 5561 5560 5545 5525 5575 5599 5609 5611 5607 5604 5610 5607 5606 5601 5593 5597 5589 5560 5543 5554 5577 5583 5577 5573 5574 5559 5499 5474 5494 5518
5389 5397 5404 5411 5417 5421 5426 5431 5435 5443 5455 5469 5487 5506 5518 5536 5540 5552 5547 5534 5555 5581 5609 5605 5603 5596 5597 5605 5602 5599 5594 5587 5593 5588 5566 5520 5548 5572 5573 5573 5570 5566 5535 5555 5525 5515 5482
5392 5397 5404 5409 5415 5418 5422 5426 5430 5435 5444 5459 5476 5492 5510 5537 5534 5537 5534 5557 5575 5594 5608 5609 5597 5602 5592 5596 5595 5588 5586 5593 5586 5588 5575 5533 5520 5560 5568 5571 5565 5563 5552 5522 5493 5459 5443
5391 5397 5403 5408 5413 5416 5419 5423 5427 5433 5440 5453 5466 5482 5520 5532 5523 5527 5549 5561 5578 5599 5609 5603 5600 5598 5599 5595 5591 5586 5586 5589 5589 5577 5570 5543 5529 5546 5560 5555 5521 5526 5496 5499 5480 5451 5435
5391 5396 5401 5407 5411 5413 5416 5420 5426 5431 5437 5448 5461 5471 5508 5521 5530 5539 5546 5562 5582 5591 5602 5607 5611 5609 5601 5593 5589 5590 5587 5589 5589 5583 5573 5567 5535 5520 5553 5561 5556 5540 5498 5474 5462 5448 5450
5391 5396 5400 5403 5407 5410 5413 5417 5422 5429 5434 5439 5446 5463 5491 5511 5526 5534 5545 5552 5569 5587 5597 5603 5603 5614 5608 5590 5578 5591 5588 5589 5587 5580 5573 5569 5530 5509 5535 5538 5548 5547 5524 5498 5496 5436 5428
5390 5394 5399 5401 5403 5406 5411 5416 5420 5425 5430 5435 5440 5454 5474 5503 5529 5534 5540 5545 5559 5583 5593 5606 5606 5608 5597 5590 5587 5579 5578 5581 5582 5582 5580 5572 5541 5529 5532 5552 5539 5523 5521 5510 5496 5439 5433
5392 5394 5397 5400 5401 5404 5409 5414 5418 5421 5424 5429 5429 5446 5470 5489 5520 5528 5538 5552 5553 5565 5590 5601 5598 5602 5597 5578 5581 5573 5577 5574 5574 5576 5573 5564 5537 5558 5565 5569 5562 5552 5534 5515 5493 5496 5489
5397 5398 5399 5399 5401 5404 5408 5413 5416 5418 5420 5422 5433 5454 5469 5491 5517 5520 5534 5542 5567 5566 5578 5592 5589 5594 5593 5586 5592 5569 5575 5572 5574 5568 5566 5564 5551 5560 5562 5567 5561 5556 5550 5536 5530 5519 5504
5405 5404 5403 5401 5403 5405 5409 5413 5416 5420 5428 5430 5436 5454 5466 5493 5512 5514 5538 5559 5568 5562 5578 5593 5593 5587 5585 5593 5594 5584 5583 5580 5579 5565 5557 5559 5545 5534 5548 5557 5554 5533 5545 5547 5539 5533 5540
5411 5410 5408 5405 5405 5408 5411 5415 5420 5429 5441 5441 5444 5453 5460 5482 5518 5535 5543 5557 5562 5559 5569 5584 5590 5586 5579 5592 5584 5578 5573 5570 5569 5567 5563 5547 5544 5529 5525 5538 5494 5563 5580 5574 5565 5564 5546
5415 5414 5411 5409 5408 5408 5413 5418 5424 5431 5438 5439 5443 5451 5458 5483 5531 5528 5543 5554 5559 5557 5568 5579 5587 5588 5586 5584 5558 5555 5542 5561 5562 5564 5562 5558 5533 5521 5516 5530 5555 5575 5578 5570 5564 5568 5568
5415 5415 5413 5411 5409 5409 5414 5420 5425 5425 5426 5430 5437 5444 5455 5458 5524 5544 5552 5563 5555 5556 5564 5568 5574 5580 5583 5557 5545 5543 5541 5553 5553 5555 5558 5551 5540 5507 5509 5526 5531 5563 5583 5581 5573 5534 5578
5412 5413 5413 5412 5409 5410 5413 5417 5417 5416 5417 5418 5425 5432 5448 5462 5519 5541 5551 5565 5565 5556 5543 5557 5561 5565 5568 5539 5529 5531 5532 5558 5543 5546 5544 5526 5513 5497 5461 5475 5531 5570 5577 5579 5555 5559 5584
5406 5408 5410 5410 5409 5410 5411 5410 5410 5409 5404 5407 5422 5434 5450 5463 5503 5551 5561 5562 5562 5570 5561 5558 5554 5545 5543 5541 5533 5530 5527 5539 5538 5553 5547 5533 5515 5496 5492 5482 5513 5573 5574 5568 5567 5575 5578
5397 5400 5406 5407 5409 5409 5408 5407 5407 5402 5405 5406 5423 5435 5446 5464 5508 5550 5569 5577 5592 5588 5579 5557 5567 5569 5562 5546 5529 5539 5535 5523 5540 5529 5556 5543 5543 5529 5535 5533 5558 5572 5581 5582 5578 5577 5574